P/2005 L1 ( McNaught )

Japanese version
Home page
Total 6,336 html files since Dec. 4, 1995
Updated on November 12, 2005

---------------------------------------------------------------------

* Profile

Discovery Date June 2, 2005
Magnitude 16.7 mag
Discoverer R. H. McNaught (Siding Spring)

* Orbital Elements

Epoch 2005 Dec. 16.0 TT = JDT 2453720.5
T 2005 Dec. 12.93539 TT                                 MPC
q   3.1434520            (2000.0)            P               Q
n   0.12444701     Peri.  149.51489     +0.30954196     +0.94666427
a   3.9732546      Node   138.33183     -0.89733468     +0.32195381
e   0.2088471      Incl.    7.73701     -0.31460172     +0.01313405
P   7.92

* Finding Charts

* Magnitudes Graph

        m1 = 10.0 + 5 log d + 10.0 log r

---------------------------------------------------------------------

The orbital elements are published on M.P.E.C. 2005-O07.
The charts are made with StellaNavigator Ver.2.0 for Windows (AstroArts / ASCII).
The magnitudes graphs are made with Comet for Windows.

---------------------------------------------------------------------

Copyright(C) 1995-2008 Seiichi Yoshida (comet@aerith.net). All rights reserved.